M I D A S
Marine Information and Data Acquisition System
Tripno 1732 of the Zeeleeuw from 2009-07-08 06:33:02 to 2009-07-08 17:29:49
Back to CruiseResearch ActivitiesStationsMapUnderway DataData graphs

EquipmentUnitsComments
TimeDGPSUTC
LatitudeDGPSDM.mWGS84
LongitudeDGPSDM.mWGS84
SpeedMeteo Stationm/sRelative wind speed
DirectionMeteo StationdegRelative wind direction
TemperatureMeteo Stationdeg CelciusAir temperature
PressureMeteo StationPaAtmospheric pressure
HumidityMeteo Station%Relative humidity
Missing or incorrect values are displayed as -999
Metereological data collected by the RV Zeeleeuw from 2009-07-08 06:36:07 to 2009-07-08 17:39:20
                                                                                    Next 1000 lines
Time Latitude Longitude Speed Direction Temperature Pressure Humidity
2009-07-08 06:36:17 51°13.663 2°55.955 6.3 44 16.1 100810 71
2009-07-08 06:36:22 51°13.664 2°55.952 7.6 37 16.1 100810 71
2009-07-08 06:36:27 51°13.665 2°55.949 4.1 81 16.2 100810 71
2009-07-08 06:36:32 51°13.666 2°55.945 3.8 38 16.2 100810 72
2009-07-08 06:36:38 51°13.668 2°55.94 3.8 78 16.2 100810 72
2009-07-08 06:36:44 51°13.669 2°55.934 3.6 31 16.2 100810 72
2009-07-08 06:36:49 51°13.671 2°55.929 3.4 75 16.2 100800 72
2009-07-08 06:36:55 51°13.672 2°55.922 5 37 16.2 100800 72
2009-07-08 06:37:00 51°13.674 2°55.916 4.5 78 16.2 100810 72
2009-07-08 06:37:05 51°13.676 2°55.909 5 38 16.2 100810 71
2009-07-08 06:37:11 51°13.678 2°55.901 3.8 81 16.2 100810 71
2009-07-08 06:37:16 51°13.679 2°55.894 5.7 35 16.2 100810 71
2009-07-08 06:37:20 51°13.68 2°55.888 6.8 75 16.2 100810 71
2009-07-08 06:37:25 51°13.682 2°55.881 6.6 33 16.3 100810 72
2009-07-08 06:37:31 51°13.684 2°55.872 3.8 82 16.3 100810 72
2009-07-08 06:37:36 51°13.685 2°55.864 4.9 39 16.3 100810 72
2009-07-08 06:37:41 51°13.686 2°55.856 4.5 76 16.3 100810 72
2009-07-08 06:37:46 51°13.688 2°55.848 6.1 38 16.3 100810 72
2009-07-08 06:37:51 51°13.689 2°55.841 3.2 76 16.2 100810 70
2009-07-08 06:37:56 51°13.69 2°55.833 4.4 36 16.2 100810 70
2009-07-08 06:38:00 51°13.691 2°55.827 5.4 75 16.3 100810 71
2009-07-08 06:38:05 51°13.692 2°55.819 6 33 16.3 100810 71
2009-07-08 06:38:11 51°13.693 2°55.811 7.7 76 16.3 100810 72
2009-07-08 06:38:16 51°13.694 2°55.804 6.7 39 16.3 100810 70
2009-07-08 06:38:20 51°13.695 2°55.799 5.8 80 16.3 100810 70
2009-07-08 06:38:25 51°13.696 2°55.792 4.1 37 16.3 100810 70
2009-07-08 06:38:31 51°13.697 2°55.785 3.1 78 16.3 100810 71
2009-07-08 06:38:36 51°13.698 2°55.78 5.2 35 16.2 100810 70
2009-07-08 06:38:40 51°13.699 2°55.775 5 81 16.2 100810 70
2009-07-08 06:38:45 51°13.7 2°55.77 5.6 34 16.2 100810 70
2009-07-08 06:38:50 51°13.701 2°55.766 6.2 81 16.2 100810 71
2009-07-08 06:38:56 51°13.701 2°55.764 6.1 38 16.2 100810 70
2009-07-08 06:39:00 51°13.702 2°55.763 4.3 77 16.2 100810 70
2009-07-08 06:39:06 51°13.702 2°55.764 5.1 33 16.2 100810 70
2009-07-08 06:39:11 51°13.703 2°55.764 3.6 80 16.2 100810 69
2009-07-08 06:39:16 51°13.704 2°55.764 3 36 16.2 100810 69
2009-07-08 06:39:20 51°13.704 2°55.764 4.8 81 16.2 100810 69
2009-07-08 06:39:25 51°13.704 2°55.763 3.3 44 16.2 100810 70
2009-07-08 06:39:31 51°13.703 2°55.761 2.4 81 16.2 100810 70
2009-07-08 06:39:36 51°13.703 2°55.759 3.3 33 16.2 100810 70
2009-07-08 06:39:41 51°13.702 2°55.756 4.8 83 16.2 100810 70
2009-07-08 06:39:46 51°13.701 2°55.753 4.3 36 16.2 100810 70
2009-07-08 06:39:51 51°13.7 2°55.75 3.8 80 16.2 100810 70
2009-07-08 06:39:56 51°13.699 2°55.748 3.8 266 16.2 100810 70
2009-07-08 06:40:00 51°13.698 2°55.745 3.5 279 16.2 100810 70
2009-07-08 06:40:06 51°13.698 2°55.743 4 264 16.2 100810 70
2009-07-08 06:40:11 51°13.698 2°55.742 5 281 16.2 100810 69
2009-07-08 06:40:16 51°13.699 2°55.742 4.2 265 16.2 100810 69
2009-07-08 06:40:20 51°13.7 2°55.743 5.5 278 16.2 100810 70
2009-07-08 06:40:25 51°13.702 2°55.744 3.9 251 16.2 100810 71
2009-07-08 06:40:31 51°13.706 2°55.744 4.6 280 16.2 100810 71
2009-07-08 06:40:35 51°13.708 2°55.744 3.4 256 16.2 100810 69
2009-07-08 06:40:40 51°13.712 2°55.744 4.6 285 16.2 100810 69
2009-07-08 06:40:45 51°13.716 2°55.743 4.9 243 16.2 100810 69
2009-07-08 06:40:51 51°13.721 2°55.74 4.6 281 16.2 100810 70
2009-07-08 06:40:56 51°13.726 2°55.737 5 34 16.2 100810 70
2009-07-08 06:41:00 51°13.73 2°55.733 6.1 281 16.2 100810 70
2009-07-08 06:41:05 51°13.735 2°55.729 5.2 38 16.2 100810 70
2009-07-08 06:41:10 51°13.741 2°55.724 4.6 285 16.2 100810 71
2009-07-08 06:41:15 51°13.747 2°55.718 5.1 323 16.2 100800 70
2009-07-08 06:41:20 51°13.754 2°55.713 4.8 283 16.2 100800 70
2009-07-08 06:41:25 51°13.761 2°55.706 6.1 326 16.1 100800 69
2009-07-08 06:41:29 51°13.766 2°55.701 6.2 280 16.1 100800 69
2009-07-08 06:41:35 51°13.775 2°55.693 7.8 329 16.1 100800 69
2009-07-08 06:41:40 51°13.782 2°55.686 5.7 278 16.2 100800 70
2009-07-08 06:41:44 51°13.788 2°55.68 6.8 320 16.2 100800 70
2009-07-08 06:41:49 51°13.796 2°55.672 7.3 284 16.2 100800 70
2009-07-08 06:41:54 51°13.803 2°55.665 6.6 331 16.2 100800 70
2009-07-08 06:41:59 51°13.812 2°55.657 9.8 280 16.2 100800 70
2009-07-08 06:42:04 51°13.82 2°55.65 4.4 328 16.2 100800 70
2009-07-08 06:42:08 51°13.827 2°55.644 10.4 284 16.2 100800 70
2009-07-08 06:42:13 51°13.836 2°55.636 10.5 322 16.2 100800 70
2009-07-08 06:42:18 51°13.844 2°55.629 8.3 283 16.2 100800 69
2009-07-08 06:42:23 51°13.854 2°55.621 9.2 331 16.2 100810 69
2009-07-08 06:42:28 51°13.863 2°55.614 7 279 16.2 100810 69
2009-07-08 06:42:33 51°13.872 2°55.607 7.9 320 16.2 100810 69
2009-07-08 06:42:37 51°13.88 2°55.601 6.8 279 16.1 100780 69
2009-07-08 06:42:43 51°13.892 2°55.592 7.6 33 16.1 100780 69
2009-07-08 06:42:48 51°13.901 2°55.585 6.8 279 16.1 100790 69
2009-07-08 06:42:53 51°13.911 2°55.578 8.1 326 16.1 100800 69
2009-07-08 06:42:59 51°13.923 2°55.569 5.6 285 16.1 100800 69
2009-07-08 06:43:04 51°13.933 2°55.562 6.6 322 16.1 100800 69
2009-07-08 06:43:10 51°13.944 2°55.552 6.1 279 16.1 100800 69
2009-07-08 06:43:16 51°13.956 2°55.543 5.7 322 16.1 100800 69
2009-07-08 06:43:20 51°13.964 2°55.537 5.5 280 16.1 100800 69
2009-07-08 06:43:25 51°13.973 2°55.53 5.6 321 16.1 100800 70
2009-07-08 06:43:30 51°13.983 2°55.522 6.3 283 16.1 100800 70
2009-07-08 06:43:35 51°13.993 2°55.514 5.7 320 16.1 100800 69
2009-07-08 06:43:40 51°14.002 2°55.506 10.1 280 16.1 100800 69
2009-07-08 06:43:45 51°14.012 2°55.499 6.3 315 16.1 100800 69
2009-07-08 06:43:49 51°14.02 2°55.493 6.8 283 16.1 100800 69
2009-07-08 06:43:54 51°14.03 2°55.486 7.6 328 16.1 100800 69
2009-07-08 06:44:00 51°14.042 2°55.477 7.9 279 16.1 100800 68
2009-07-08 06:44:04 51°14.049 2°55.47 8.3 323 16.1 100800 69
2009-07-08 06:44:09 51°14.059 2°55.462 8 281 16.1 100800 69
2009-07-08 06:44:14 51°14.069 2°55.454 6.5 321 16.1 100800 69
2009-07-08 06:44:19 51°14.079 2°55.446 10.1 283 16.1 100800 69
2009-07-08 06:44:24 51°14.089 2°55.438 10.1 317 16.1 100800 69
2009-07-08 06:44:28 51°14.096 2°55.431 10.7 282 16.1 100800 69
2009-07-08 06:44:33 51°14.106 2°55.423 11.5 35 16.1 100800 69
2009-07-08 06:44:38 51°14.116 2°55.415 12.5 282 16.1 100800 69
2009-07-08 06:44:43 51°14.126 2°55.407 13.6 33 16.1 100800 69
2009-07-08 06:44:48 51°14.136 2°55.398 12.9 284 16.1 100800 69
2009-07-08 06:44:53 51°14.145 2°55.389 10.1 35 16.1 100800 69
2009-07-08 06:44:58 51°14.155 2°55.38 14.3 280 16.1 100790 69
2009-07-08 06:45:03 51°14.164 2°55.371 13.3 320 16.1 100790 71
2009-07-08 06:45:08 51°14.174 2°55.362 14.8 277 16.1 100790 71
2009-07-08 06:45:12 51°14.181 2°55.354 14.2 316 16.2 100790 70
2009-07-08 06:45:17 51°14.19 2°55.344 13.4 278 16.2 100790 70
2009-07-08 06:45:22 51°14.199 2°55.333 11.3 317 16.2 100790 70
2009-07-08 06:45:27 51°14.208 2°55.323 11.7 278 16.2 100780 71
2009-07-08 06:45:32 51°14.217 2°55.312 13.1 317 16.2 100790 71
2009-07-08 06:45:36 51°14.225 2°55.303 14.3 282 16.2 100790 71
2009-07-08 06:45:42 51°14.235 2°55.289 14.6 317 16.2 100790 71
2009-07-08 06:45:46 51°14.242 2°55.279 11.4 280 16.2 100790 70
2009-07-08 06:45:52 51°14.253 2°55.264 11.2 321 16.2 100780 70
2009-07-08 06:45:56 51°14.26 2°55.254 13.9 281 16.2 100780 70
2009-07-08 06:46:02 51°14.27 2°55.238 14.5 318 16.2 100780 70
2009-07-08 06:46:06 51°14.277 2°55.227 9.3 278 16.1 100790 70
2009-07-08 06:46:12 51°14.287 2°55.211 10.3 321 16.1 100780 70
2009-07-08 06:46:16 51°14.294 2°55.199 10.4 278 16.1 100780 70
2009-07-08 06:46:22 51°14.303 2°55.181 13.7 320 16.1 100780 70
2009-07-08 06:46:27 51°14.311 2°55.166 11.6 278 16.1 100780 71
2009-07-08 06:46:32 51°14.319 2°55.151 14.6 318 16.1 100780 71
2009-07-08 06:46:36 51°14.325 2°55.139 12.6 282 16.1 100780 70
2009-07-08 06:46:42 51°14.336 2°55.121 15.3 316 16.1 100770 70
2009-07-08 06:46:47 51°14.344 2°55.106 15.3 283 16.1 100770 70
2009-07-08 06:46:52 51°14.352 2°55.09 12.3 317 16.1 100770 70
2009-07-08 06:46:56 51°14.359 2°55.078 15.2 283 16.1 100770 70
2009-07-08 06:47:02 51°14.369 2°55.059 14.2 319 16.1 100770 69
2009-07-08 06:47:07 51°14.377 2°55.043 14.2 279 16.1 100770 69
2009-07-08 06:47:12 51°14.385 2°55.026 12.1 320 16.1 100760 70
2009-07-08 06:47:17 51°14.392 2°55.01 14.6 279 16.1 100760 70
2009-07-08 06:47:21 51°14.398 2°54.997 13.8 321 16.1 100760 71
2009-07-08 06:47:27 51°14.408 2°54.978 14.6 282 16.1 100760 71
2009-07-08 06:47:32 51°14.416 2°54.962 12 322 16.1 100750 71
2009-07-08 06:47:37 51°14.424 2°54.946 16.3 283 16.1 100750 71
2009-07-08 06:47:41 51°14.431 2°54.934 15.5 319 16.1 100750 71
2009-07-08 06:47:46 51°14.441 2°54.92 12.4 277 16.2 100780 71
2009-07-08 06:47:52 51°14.453 2°54.902 12.2 319 16.2 100790 71
2009-07-08 06:47:56 51°14.461 2°54.89 14.5 279 16.2 100790 71
2009-07-08 06:48:02 51°14.473 2°54.871 15.7 316 16.2 100790 71
2009-07-08 06:48:06 51°14.481 2°54.858 11.8 280 16.2 100780 70
2009-07-08 06:48:12 51°14.494 2°54.84 14.8 35 16.2 100780 70
2009-07-08 06:48:17 51°14.506 2°54.826 16.2 285 16.2 100780 70
2009-07-08 06:48:22 51°14.517 2°54.812 13.2 38 16.2 100780 71
2009-07-08 06:48:27 51°14.529 2°54.798 16.2 282 16.2 100780 71
2009-07-08 06:48:32 51°14.541 2°54.783 14 33 16.2 100780 71
2009-07-08 06:48:37 51°14.554 2°54.77 12.9 281 16.3 100770 71
2009-07-08 06:48:42 51°14.566 2°54.755 16.4 35 16.3 100770 72
2009-07-08 06:48:47 51°14.579 2°54.742 15.8 284 16.3 100770 72
2009-07-08 06:48:52 51°14.592 2°54.728 11.2 38 16.3 100770 72
2009-07-08 06:48:56 51°14.602 2°54.718 17.1 282 16.3 100770 71
2009-07-08 06:49:02 51°14.617 2°54.701 16.7 35 16.2 100760 72
2009-07-08 06:49:07 51°14.63 2°54.688 16.6 281 16.2 100760 72
2009-07-08 06:49:12 51°14.643 2°54.674 15.6 34 16.3 100780 72
2009-07-08 06:49:16 51°14.654 2°54.663 15.2 282 16.3 100780 72
2009-07-08 06:49:21 51°14.667 2°54.651 12.8 315 16.3 100760 72
2009-07-08 06:49:27 51°14.682 2°54.635 14.8 279 16.3 100760 72
2009-07-08 06:49:32 51°14.696 2°54.622 15.9 35 16.2 100770 70
2009-07-08 06:49:36 51°14.706 2°54.612 12.6 279 16.2 100770 70
2009-07-08 06:49:42 51°14.722 2°54.597 12.9 38 16.2 100780 71
2009-07-08 06:49:47 51°14.735 2°54.584 14.3 280 16.2 100780 71
2009-07-08 06:49:52 51°14.748 2°54.571 11.2 37 16.2 100780 71
2009-07-08 06:49:57 51°14.761 2°54.558 15.4 279 16.2 100780 71
2009-07-08 06:50:02 51°14.774 2°54.544 17.4 315 16.2 100780 71
2009-07-08 06:50:07 51°14.787 2°54.531 15.7 281 16.2 100790 71
2009-07-08 06:50:12 51°14.8 2°54.516 15 316 16.2 100770 72
2009-07-08 06:50:16 51°14.81 2°54.505 12.8 285 16.2 100770 72
2009-07-08 06:50:22 51°14.825 2°54.488 13.2 317 16.2 100770 72
2009-07-08 06:50:26 51°14.835 2°54.477 14.9 282 16.3 100760 72
2009-07-08 06:50:32 51°14.851 2°54.461 15.6 318 16.3 100760 72
2009-07-08 06:50:37 51°14.863 2°54.447 12.9 280 16.2 100770 72
2009-07-08 06:50:42 51°14.876 2°54.434 15.3 316 16.2 100770 70
2009-07-08 06:50:47 51°14.889 2°54.42 13.2 285 16.2 100770 70
2009-07-08 06:50:52 51°14.902 2°54.406 12.9 34 16.1 100780 71
2009-07-08 06:50:57 51°14.914 2°54.393 15.1 282 16.1 100780 71
2009-07-08 06:51:01 51°14.925 2°54.382 12.6 21 16.1 100780 81
2009-07-08 06:51:07 51°14.94 2°54.365 12.4 285 16.1 100780 81
2009-07-08 06:51:12 51°14.952 2°54.351 15.8 25 16.2 100780 79
2009-07-08 06:51:17 51°14.965 2°54.338 15.3 285 16.2 100780 79
2009-07-08 06:51:22 51°14.977 2°54.324 12.6 21 16.2 100770 82
2009-07-08 06:51:27 51°14.99 2°54.311 12.6 282 16.2 100770 82
2009-07-08 06:51:32 51°15.002 2°54.297 12.6 27 16.2 100780 82
2009-07-08 06:51:36 51°15.012 2°54.286 15.8 282 16.2 100780 82
2009-07-08 06:51:42 51°15.027 2°54.27 16 23 16.2 100770 83
2009-07-08 06:51:47 51°15.04 2°54.256 15.1 283 16.2 100770 83
2009-07-08 06:51:52 51°15.052 2°54.243 13.5 20 16.2 100770 84
2009-07-08 06:51:57 51°15.065 2°54.228 15.9 280 16.2 100770 84
2009-07-08 06:52:01 51°15.074 2°54.217 16.9 24 16.1 100770 83
2009-07-08 06:52:07 51°15.089 2°54.201 16.1 285 16.1 100770 83
2009-07-08 06:52:12 51°15.102 2°54.187 12.8 315 16.1 100770 83
2009-07-08 06:52:17 51°15.114 2°54.173 16.2 282 16.1 100770 83
2009-07-08 06:52:21 51°15.124 2°54.162 12.9 25 16.1 100770 84
2009-07-08 06:52:27 51°15.139 2°54.146 15.7 283 16.1 100770 84
2009-07-08 06:52:32 51°15.151 2°54.131 12.9 317 16.2 100780 84
2009-07-08 06:52:37 51°15.164 2°54.117 16.2 283 16.2 100780 84
2009-07-08 06:52:42 51°15.176 2°54.103 13.3 26 16.1 100780 83
2009-07-08 06:52:47 51°15.188 2°54.089 13.3 285 16.1 100780 83
2009-07-08 06:52:52 51°15.201 2°54.075 13.1 316 16.1 100780 83
2009-07-08 06:52:57 51°15.213 2°54.06 16.2 281 16.1 100780 83
2009-07-08 06:53:02 51°15.225 2°54.046 16.3 26 16.1 100780 82
2009-07-08 06:53:07 51°15.238 2°54.032 16.2 279 16.1 100780 82
2009-07-08 06:53:12 51°15.25 2°54.017 16.6 26 16.1 100770 82
2009-07-08 06:53:17 51°15.262 2°54.003 13.6 284 16.1 100770 82
2009-07-08 06:53:21 51°15.272 2°53.992 15.5 21 16.1 100780 82
2009-07-08 06:53:27 51°15.287 2°53.975 16 285 16.1 100780 82
2009-07-08 06:53:32 51°15.3 2°53.961 14.3 22 16.1 100790 83
2009-07-08 06:53:37 51°15.312 2°53.947 15.9 277 16.1 100790 83
2009-07-08 06:53:41 51°15.323 2°53.936 11.8 29 16 100770 82
2009-07-08 06:53:47 51°15.338 2°53.918 14 282 16 100770 82
2009-07-08 06:53:52 51°15.35 2°53.905 12.8 25 16 100770 83
2009-07-08 06:53:57 51°15.363 2°53.892 14 281 16 100770 83
2009-07-08 06:54:01 51°15.373 2°53.88 14.3 23 16 100770 82
2009-07-08 06:54:07 51°15.388 2°53.865 16.5 283 16 100770 82
2009-07-08 06:54:12 51°15.4 2°53.851 13 28 16.1 100780 83
2009-07-08 06:54:16 51°15.411 2°53.84 17.1 283 16.1 100780 83
2009-07-08 06:54:21 51°15.423 2°53.826 15.1 23 16.1 100770 82
2009-07-08 06:54:27 51°15.438 2°53.809 11.5 277 16.1 100770 82
2009-07-08 06:54:32 51°15.451 2°53.795 11.8 27 16.1 100760 80
2009-07-08 06:54:37 51°15.464 2°53.781 13.7 282 16.1 100760 80
2009-07-08 06:54:41 51°15.474 2°53.77 16.1 24 16.1 100780 82
2009-07-08 06:54:47 51°15.489 2°53.753 16.2 282 16.1 100780 82
2009-07-08 06:54:52 51°15.502 2°53.739 14.9 27 16.1 100790 82
2009-07-08 06:54:57 51°15.515 2°53.724 17.8 280 16.1 100790 82
2009-07-08 06:55:02 51°15.528 2°53.71 14.6 26 16.2 100790 83
2009-07-08 06:55:07 51°15.54 2°53.696 14.5 282 16.2 100790 83
2009-07-08 06:55:12 51°15.552 2°53.681 12.5 29 16.2 100770 84
2009-07-08 06:55:17 51°15.565 2°53.667 14 282 16.2 100770 84
2009-07-08 06:55:21 51°15.575 2°53.655 17 25 16.2 100780 82
2009-07-08 06:55:27 51°15.59 2°53.638 14.4 284 16.2 100780 82
2009-07-08 06:55:32 51°15.602 2°53.625 16.2 23 16.2 100770 83
2009-07-08 06:55:37 51°15.615 2°53.61 13 287 16.2 100770 83
2009-07-08 06:55:42 51°15.627 2°53.596 16.1 23 16.2 100780 82
2009-07-08 06:55:47 51°15.639 2°53.581 14.2 285 16.2 100780 82
2009-07-08 06:55:52 51°15.652 2°53.567 18.1 22 16.2 100770 85
2009-07-08 06:55:57 51°15.665 2°53.552 12.8 285 16.2 100770 85
2009-07-08 06:56:01 51°15.675 2°53.541 13.3 24 16.2 100780 84
2009-07-08 06:56:07 51°15.69 2°53.523 13.3 281 16.2 100780 84
2009-07-08 06:56:12 51°15.702 2°53.508 16.5 22 16.1 100780 84
2009-07-08 06:56:17 51°15.715 2°53.493 14.5 281 16.1 100780 84
2009-07-08 06:56:21 51°15.725 2°53.482 15.4 25 16.1 100780 83
2009-07-08 06:56:27 51°15.741 2°53.465 16.7 282 16.1 100780 83
2009-07-08 06:56:32 51°15.754 2°53.451 16.7 24 16.1 100780 82
2009-07-08 06:56:36 51°15.764 2°53.44 15.1 279 16.1 100780 82
2009-07-08 06:56:41 51°15.777 2°53.426 14.9 26 16.1 100780 81
2009-07-08 06:56:47 51°15.792 2°53.41 14.3 281 16.1 100780 81
2009-07-08 06:56:52 51°15.805 2°53.396 14.3 27 16.1 100780 84
2009-07-08 06:56:57 51°15.818 2°53.383 16.1 282 16.1 100780 84
2009-07-08 06:57:01 51°15.829 2°53.373 15.8 24 16.1 100780 85
2009-07-08 06:57:07 51°15.844 2°53.356 16.6 284 16.1 100780 85
2009-07-08 06:57:12 51°15.857 2°53.342 14.6 26 16.1 100780 82
2009-07-08 06:57:17 51°15.87 2°53.328 13.8 281 16.1 100780 82
2009-07-08 06:57:21 51°15.88 2°53.318 13.5 25 16.2 100770 84
2009-07-08 06:57:27 51°15.896 2°53.301 15.3 283 16.2 100770 84
2009-07-08 06:57:32 51°15.909 2°53.288 15.8 21 16.2 100770 84
2009-07-08 06:57:37 51°15.922 2°53.276 12.5 279 16.2 100770 84
2009-07-08 06:57:42 51°15.936 2°53.263 13.7 26 16.2 100780 83
2009-07-08 06:57:47 51°15.949 2°53.251 15.1 284 16.2 100780 83
2009-07-08 06:57:52 51°15.963 2°53.24 16.8 23 16.2 100770 83
2009-07-08 06:57:57 51°15.976 2°53.227 12.9 284 16.2 100770 83
2009-07-08 06:58:02 51°15.989 2°53.215 13.8 23 16.2 100790 84
2009-07-08 06:58:07 51°16.002 2°53.203 16.8 278 16.2 100790 84
2009-07-08 06:58:12 51°16.016 2°53.191 17 25 16.2 100800 84
2009-07-08 06:58:16 51°16.027 2°53.181 14 281 16.2 100800 84
2009-07-08 06:58:21 51°16.04 2°53.169 14.9 22 16.2 100780 82
2009-07-08 06:58:27 51°16.056 2°53.154 13.3 285 16.2 100780 82
2009-07-08 06:58:32 51°16.07 2°53.143 15.7 22 16.2 100790 84
2009-07-08 06:58:36 51°16.081 2°53.133 16.6 281 16.2 100790 84
2009-07-08 06:58:42 51°16.097 2°53.119 15.3 22 16.1 100780 84
2009-07-08 06:58:47 51°16.11 2°53.106 13.5 279 16.1 100780 84
2009-07-08 06:58:52 51°16.124 2°53.094 15.4 24 16.1 100780 84
2009-07-08 06:58:57 51°16.138 2°53.082 16.7 281 16.1 100780 84
2009-07-08 06:59:01 51°16.148 2°53.072 14 29 16.1 100780 84
2009-07-08 06:59:07 51°16.165 2°53.058 15.8 282 16.1 100780 84
2009-07-08 06:59:12 51°16.178 2°53.046 13.4 28 16.1 100780 85
2009-07-08 06:59:17 51°16.192 2°53.035 13.6 283 16.1 100780 85
2009-07-08 06:59:21 51°16.203 2°53.026 15.2 27 16.1 100780 85
2009-07-08 06:59:27 51°16.219 2°53.012 14.3 279 16.1 100780 85
2009-07-08 06:59:32 51°16.233 2°53.001 17 25 16.1 100760 83
2009-07-08 06:59:37 51°16.246 2°52.99 15.1 280 16.1 100760 83
2009-07-08 06:59:42 51°16.26 2°52.979 14.4 22 16.1 100790 84
2009-07-08 06:59:47 51°16.274 2°52.968 14.7 282 16.1 100790 84
2009-07-08 06:59:52 51°16.288 2°52.958 15.2 22 16.1 100780 84
2009-07-08 06:59:57 51°16.302 2°52.947 13.9 278 16.1 100780 84
2009-07-08 07:00:01 51°16.313 2°52.939 12.5 27 16.1 100790 83
2009-07-08 07:00:07 51°16.33 2°52.926 17.1 279 16.1 100790 83
2009-07-08 07:00:12 51°16.344 2°52.916 12.7 26 16.1 100800 83
2009-07-08 07:00:17 51°16.358 2°52.907 15 285 16.1 100800 83
2009-07-08 07:00:21 51°16.369 2°52.899 12.7 26 16.1 100790 82
2009-07-08 07:00:27 51°16.387 2°52.888 12.4 278 16.1 100790 82
2009-07-08 07:00:32 51°16.401 2°52.878 15.4 23 16.1 100790 82
2009-07-08 07:00:36 51°16.412 2°52.87 13.2 281 16.1 100790 82
2009-07-08 07:00:42 51°16.43 2°52.86 14.8 26 16.1 100790 83
2009-07-08 07:00:47 51°16.444 2°52.852 12.4 284 16.1 100790 83
2009-07-08 07:00:52 51°16.459 2°52.844 14.1 23 16.1 100790 84
2009-07-08 07:00:57 51°16.474 2°52.837 11.7 281 16.1 100790 84
2009-07-08 07:01:01 51°16.485 2°52.832 13.9 25 16.1 100790 83
2009-07-08 07:01:07 51°16.503 2°52.823 13.2 283 16.1 100790 83
2009-07-08 07:01:12 51°16.517 2°52.816 14.4 25 16.1 100790 83
2009-07-08 07:01:17 51°16.532 2°52.809 14.6 278 16.1 100790 83
2009-07-08 07:01:21 51°16.543 2°52.803 15 24 16.1 100780 85
2009-07-08 07:01:27 51°16.561 2°52.795 12.3 285 16.1 100780 85
2009-07-08 07:01:32 51°16.575 2°52.788 13.5 26 16.2 100790 86
2009-07-08 07:01:37 51°16.59 2°52.783 13.7 278 16.2 100790 86
2009-07-08 07:01:42 51°16.604 2°52.777 12.3 24 16.2 100790 87
2009-07-08 07:01:47 51°16.619 2°52.771 13.3 286 16.2 100790 87
2009-07-08 07:01:52 51°16.634 2°52.765 14.6 25 16.2 100770 86
2009-07-08 07:01:57 51°16.648 2°52.759 15.6 279 16.2 100770 86
2009-07-08 07:02:01 51°16.66 2°52.754 14 24 16.2 100780 86
2009-07-08 07:02:07 51°16.678 2°52.748 12.6 285 16.2 100780 86
2009-07-08 07:02:12 51°16.693 2°52.743 13.3 21 16.2 100780 85
2009-07-08 07:02:17 51°16.708 2°52.738 12.3 282 16.2 100780 85
2009-07-08 07:02:21 51°16.719 2°52.734 16.6 22 16.2 100790 86
2009-07-08 07:02:27 51°16.737 2°52.729 15.9 279 16.2 100790 86
2009-07-08 07:02:32 51°16.752 2°52.724 12.3 27 16.1 100770 85
2009-07-08 07:02:37 51°16.767 2°52.72 12.3 286 16.1 100770 85
2009-07-08 07:02:42 51°16.781 2°52.715 15.4 20 16.1 100780 85
2009-07-08 07:02:47 51°16.796 2°52.71 15 282 16.1 100780 85
2009-07-08 07:02:52 51°16.811 2°52.706 13.7 25 16.1 100780 85
2009-07-08 07:02:57 51°16.825 2°52.702 14.3 281 16.1 100780 85
2009-07-08 07:03:01 51°16.837 2°52.697 12.6 24 16.2 100800 86
2009-07-08 07:03:07 51°16.854 2°52.692 11.8 283 16.2 100800 86
2009-07-08 07:03:12 51°16.869 2°52.687 10.5 21 16.2 100800 85
2009-07-08 07:03:17 51°16.883 2°52.683 11 281 16.2 100800 85
2009-07-08 07:03:21 51°16.895 2°52.681 13.3 25 16.2 100800 86
2009-07-08 07:03:27 51°16.912 2°52.676 13.5 283 16.2 100800 86
2009-07-08 07:03:32 51°16.926 2°52.673 16.4 22 16.2 100790 87
2009-07-08 07:03:37 51°16.941 2°52.669 16 281 16.2 100790 87
2009-07-08 07:03:41 51°16.953 2°52.667 13.8 24 16.2 100810 87
2009-07-08 07:03:47 51°16.97 2°52.662 13.1 285 16.2 100810 87
2009-07-08 07:03:52 51°16.985 2°52.659 12.5 26 16.2 100790 80
2009-07-08 07:03:57 51°16.999 2°52.656 14.8 282 16.2 100790 80
2009-07-08 07:04:02 51°17.014 2°52.653 13.1 21 16.2 100780 83
2009-07-08 07:04:07 51°17.029 2°52.65 13.2 279 16.2 100780 83
2009-07-08 07:04:12 51°17.043 2°52.647 12.7 27 16.2 100790 84
2009-07-08 07:04:17 51°17.058 2°52.643 14 285 16.2 100790 84
2009-07-08 07:04:21 51°17.069 2°52.641 15.8 26 16.1 100790 84
2009-07-08 07:04:27 51°17.087 2°52.637 12.6 280 16.1 100790 84
2009-07-08 07:04:32 51°17.102 2°52.635 12.6 25 16.1 100780 85
2009-07-08 07:04:37 51°17.116 2°52.633 12 284 16.1 100780 85
2009-07-08 07:04:42 51°17.131 2°52.634 15.9 22 16.2 100790 85
2009-07-08 07:04:47 51°17.145 2°52.632 12.9 282 16.2 100790 85
2009-07-08 07:04:52 51°17.16 2°52.636 12.7 24 16.2 100790 86
2009-07-08 07:04:57 51°17.174 2°52.637 13.6 283 16.2 100790 86
2009-07-08 07:05:01 51°17.185 2°52.641 11.5 26 16.2 100800 85
2009-07-08 07:05:07 51°17.202 2°52.648 13.3 285 16.2 100800 85
2009-07-08 07:05:12 51°17.215 2°52.656 11.2 248 16.2 100810 85
2009-07-08 07:05:17 51°17.228 2°52.663 12 278 16.2 100810 85
2009-07-08 07:05:21 51°17.238 2°52.671 12.6 247 16.2 100810 86
2009-07-08 07:05:27 51°17.254 2°52.682 10.8 279 16.2 100810 86
2009-07-08 07:05:32 51°17.267 2°52.693 9.6 252 16.1 100800 85
2009-07-08 07:05:36 51°17.276 2°52.702 8.7 281 16.1 100800 85
2009-07-08 07:05:41 51°17.288 2°52.714 10.9 254 16.1 100810 86
2009-07-08 07:05:47 51°17.301 2°52.731 10.2 279 16.1 100810 86
2009-07-08 07:05:52 51°17.312 2°52.746 9.1 256 16.1 100820 86
2009-07-08 07:05:57 51°17.321 2°52.762 7.7 279 16.1 100820 86
2009-07-08 07:06:01 51°17.329 2°52.775 8.6 258 16.1 100820 86
2009-07-08 07:06:07 51°17.34 2°52.795 7.7 279 16.1 100820 86
2009-07-08 07:06:12 51°17.35 2°52.811 6.4 260 16.1 100830 86
2009-07-08 07:06:17 51°17.358 2°52.83 8.2 280 16.1 100830 86
2009-07-08 07:06:21 51°17.366 2°52.842 7.2 258 16.2 100840 74
2009-07-08 07:06:27 51°17.375 2°52.865 11.2 280 16.2 100840 74
2009-07-08 07:06:32 51°17.385 2°52.881 9.9 258 16.2 100830 75
2009-07-08 07:06:37 51°17.393 2°52.901 8.3 281 16.2 100830 75
2009-07-08 07:06:42 51°17.402 2°52.919 6.3 249 16.2 100830 73
2009-07-08 07:06:47 51°17.41 2°52.938 8.2 284 16.2 100830 73
2009-07-08 07:06:52 51°17.418 2°52.956 9.4 258 16.2 100820 75
2009-07-08 07:06:57 51°17.427 2°52.975 8.3 284 16.2 100820 75
2009-07-08 07:07:02 51°17.434 2°52.994 10.1 253 16.2 100830 73
2009-07-08 07:07:07 51°17.443 2°53.012 8.9 286 16.2 100830 73
2009-07-08 07:07:12 51°17.451 2°53.032 9.7 253 16.2 100820 74
2009-07-08 07:07:17 51°17.46 2°53.049 9.6 280 16.2 100820 74
2009-07-08 07:07:21 51°17.466 2°53.065 9.2 252 16.2 100830 74
2009-07-08 07:07:27 51°17.476 2°53.086 9.3 287 16.2 100830 74
2009-07-08 07:07:32 51°17.485 2°53.105 9.1 256 16.2 100830 72
2009-07-08 07:07:36 51°17.492 2°53.119 8.8 279 16.2 100830 72
2009-07-08 07:07:42 51°17.501 2°53.142 11.6 256 16.2 100830 74
2009-07-08 07:07:47 51°17.512 2°53.156 8.4 284 16.2 100830 74
2009-07-08 07:07:52 51°17.52 2°53.175 10.3 252 16.2 100820 72
2009-07-08 07:07:57 51°17.531 2°53.19 7.4 278 16.2 100820 72
2009-07-08 07:08:01 51°17.538 2°53.204 8.4 253 16.2 100830 73
2009-07-08 07:08:07 51°17.549 2°53.224 11.6 287 16.2 100830 73
2009-07-08 07:08:12 51°17.559 2°53.24 9.2 254 16.2 100840 73
2009-07-08 07:08:17 51°17.568 2°53.256 11.4 281 16.2 100840 73
2009-07-08 07:08:21 51°17.576 2°53.268 8.1 255 16.2 100840 73
2009-07-08 07:08:27 51°17.588 2°53.288 9.7 279 16.2 100840 73
2009-07-08 07:08:32 51°17.597 2°53.305 10.1 258 16.2 100820 85
2009-07-08 07:08:37 51°17.607 2°53.32 10.2 279 16.2 100820 85
2009-07-08 07:08:42 51°17.616 2°53.337 7.7 250 16.1 100830 80
2009-07-08 07:08:47 51°17.626 2°53.353 8.8 282 16.1 100830 80
2009-07-08 07:08:52 51°17.635 2°53.369 8.6 256 16.1 100830 85
2009-07-08 07:08:57 51°17.644 2°53.386 9.1 279 16.1 100830 85
2009-07-08 07:09:02 51°17.654 2°53.402 10 258 16.1 100830 84
2009-07-08 07:09:07 51°17.662 2°53.42 8.8 279 16.1 100830 84
2009-07-08 07:09:12 51°17.671 2°53.436 10.5 254 16.1 100830 85
2009-07-08 07:09:17 51°17.68 2°53.453 7.6 279 16.1 100830 85
2009-07-08 07:09:22 51°17.689 2°53.471 10.8 258 16.1 100820 85
2009-07-08 07:09:27 51°17.698 2°53.487 6.4 286 16.1 100820 85
2009-07-08 07:09:32 51°17.707 2°53.504 8.6 260 16.1 100840 85
2009-07-08 07:09:37 51°17.716 2°53.52 6.9 286 16.1 100840 85
2009-07-08 07:09:42 51°17.724 2°53.538 8.8 256 16.1 100830 85
2009-07-08 07:09:47 51°17.734 2°53.554 6.7 283 16.1 100830 85
2009-07-08 07:09:52 51°17.742 2°53.572 8.8 253 16.1 100830 85
2009-07-08 07:09:56 51°17.75 2°53.585 7.1 278 16.1 100830 85
2009-07-08 07:10:01 51°17.759 2°53.602 9.1 260 16.1 100840 85
2009-07-08 07:10:07 51°17.769 2°53.624 7.3 279 16.1 100840 85
2009-07-08 07:10:12 51°17.779 2°53.639 9 260 16.1 100830 86
2009-07-08 07:10:16 51°17.786 2°53.653 8.9 279 16.1 100830 86
2009-07-08 07:10:21 51°17.795 2°53.669 7.2 256 16.2 100830 86
2009-07-08 07:10:27 51°17.806 2°53.69 5.7 281 16.2 100830 86
2009-07-08 07:10:32 51°17.815 2°53.706 6.7 255 16.2 100830 86
2009-07-08 07:10:36 51°17.822 2°53.72 8.5 279 16.2 100830 86
2009-07-08 07:10:41 51°17.832 2°53.736 8.2 250 16.2 100830 84
2009-07-08 07:10:47 51°17.842 2°53.757 9.9 280 16.2 100830 84
2009-07-08 07:10:52 51°17.851 2°53.774 10.6 255 16.2 100830 85
2009-07-08 07:10:56 51°17.859 2°53.786 10.5 287 16.2 100830 85
2009-07-08 07:11:01 51°17.868 2°53.805 12.1 256 16.2 100820 84
2009-07-08 07:11:06 51°17.877 2°53.82 8.9 283 16.2 100820 84
2009-07-08 07:11:11 51°17.886 2°53.838 9.8 252 16.2 100830 84
2009-07-08 07:11:17 51°17.897 2°53.857 10.9 282 16.2 100830 84
2009-07-08 07:11:21 51°17.904 2°53.872 10 256 16.2 100830 86
2009-07-08 07:11:27 51°17.915 2°53.892 10.7 281 16.2 100830 86
2009-07-08 07:11:31 51°17.922 2°53.905 8.4 254 16.2 100820 86
2009-07-08 07:11:37 51°17.932 2°53.926 10.4 278 16.2 100820 86
2009-07-08 07:11:41 51°17.94 2°53.939 10 255 16.2 100840 85
2009-07-08 07:11:45 51°17.946 2°53.953 11.7 285 16.2 100840 85
2009-07-08 07:11:51 51°17.958 2°53.972 9.7 254 16.2 100830 82
2009-07-08 07:11:57 51°17.968 2°53.993 10.3 282 16.2 100830 82
2009-07-08 07:12:02 51°17.977 2°54.009 8.9 253 16.2 100830 82
2009-07-08 07:12:07 51°17.986 2°54.026 7.4 279 16.2 100830 82
2009-07-08 07:12:11 51°17.993 2°54.04 7.2 254 16.2 100830 85
2009-07-08 07:12:17 51°18.004 2°54.059 10.5 285 16.2 100830 85
2009-07-08 07:12:21 51°18.011 2°54.073 9.2 256 16.2 100830 85
2009-07-08 07:12:27 51°18.021 2°54.093 10.1 287 16.2 100830 85
2009-07-08 07:12:31 51°18.028 2°54.107 7.3 257 16.2 100830 82
2009-07-08 07:12:37 51°18.038 2°54.128 9.2 283 16.2 100830 82
2009-07-08 07:12:41 51°18.044 2°54.143 9.8 259 16.2 100840 85
2009-07-08 07:12:46 51°18.054 2°54.159 7.6 279 16.2 100840 85
2009-07-08 07:12:51 51°18.06 2°54.179 6.6 256 16.2 100830 86
2009-07-08 07:12:57 51°18.07 2°54.2 7.4 285 16.2 100830 86
2009-07-08 07:13:01 51°18.076 2°54.215 6.3 251 16.2 100840 84
2009-07-08 07:13:06 51°18.082 2°54.235 6.8 284 16.2 100840 84
2009-07-08 07:13:11 51°18.09 2°54.253 10.4 259 16.2 100840 84
2009-07-08 07:13:17 51°18.099 2°54.275 7.3 281 16.2 100840 84
2009-07-08 07:13:21 51°18.103 2°54.291 10 254 16.2 100840 86
2009-07-08 07:13:26 51°18.111 2°54.31 8.8 282 16.2 100840 86
2009-07-08 07:13:31 51°18.118 2°54.329 8 258 16.3 100830 87
2009-07-08 07:13:36 51°18.124 2°54.348 7.7 281 16.3 100830 87
2009-07-08 07:13:41 51°18.131 2°54.368 8.5 256 16.3 100830 87
2009-07-08 07:13:47 51°18.139 2°54.391 7.3 279 16.3 100830 87
2009-07-08 07:13:53 51°18.146 2°54.414 9.9 259 16.3 100830 86
2009-07-08 07:13:57 51°18.153 2°54.428 7.3 280 16.3 100830 86
2009-07-08 07:14:01 51°18.157 2°54.443 5.6 264 16.3 100830 86
2009-07-08 07:14:07 51°18.164 2°54.467 4.8 278 16.3 100830 86
2009-07-08 07:14:11 51°18.17 2°54.482 7.9 256 16.2 100840 87
2009-07-08 07:14:17 51°18.177 2°54.506 7.1 277 16.2 100840 87
2009-07-08 07:14:21 51°18.183 2°54.521 7.3 262 16.2 100840 86
2009-07-08 07:14:27 51°18.191 2°54.544 7 278 16.2 100840 86
2009-07-08 07:14:31 51°18.197 2°54.558 8.9 260 16.2 100830 86
2009-07-08 07:14:37 51°18.203 2°54.583 8.1 279 16.2 100830 86
2009-07-08 07:14:41 51°18.21 2°54.597 7.4 259 16.2 100840 86
2009-07-08 07:14:47 51°18.216 2°54.622 9.3 281 16.2 100840 86
2009-07-08 07:14:52 51°18.224 2°54.639 5.7 262 16.2 100840 84
2009-07-08 07:14:57 51°18.23 2°54.659 6.6 281 16.2 100840 84
2009-07-08 07:15:01 51°18.236 2°54.674 5.5 261 16.2 100840 85
2009-07-08 07:15:07 51°18.245 2°54.696 5.4 280 16.2 100840 85
2009-07-08 07:15:11 51°18.251 2°54.711 8.8 258 16.2 100830 85
2009-07-08 07:15:17 51°18.26 2°54.733 8.1 286 16.2 100830 85
2009-07-08 07:15:21 51°18.266 2°54.748 10.7 259 16.2 100840 86
2009-07-08 07:15:27 51°18.276 2°54.769 9 280 16.2 100840 86
2009-07-08 07:15:33 51°18.284 2°54.792 7.8 255 16.1 100840 85
2009-07-08 07:15:37 51°18.291 2°54.806 9.4 283 16.1 100840 85
2009-07-08 07:15:41 51°18.297 2°54.82 8.7 259 16.1 100830 86
2009-07-08 07:15:47 51°18.306 2°54.842 9.6 279 16.1 100830 86
2009-07-08 07:15:51 51°18.312 2°54.857 10 256 16.1 100850 84
2009-07-08 07:15:57 51°18.323 2°54.876 8.4 279 16.1 100850 84
2009-07-08 07:16:01 51°18.329 2°54.891 8.4 260 16.1 100840 85
2009-07-08 07:16:07 51°18.339 2°54.912 7.9 279 16.1 100840 85
2009-07-08 07:16:11 51°18.345 2°54.926 7.8 260 16.1 100840 85
2009-07-08 07:16:17 51°18.355 2°54.947 8.4 284 16.1 100840 85
2009-07-08 07:16:21 51°18.361 2°54.962 6.5 262 16.1 100840 86
2009-07-08 07:16:27 51°18.371 2°54.981 4.5 283 16.1 100840 86
2009-07-08 07:16:31 51°18.377 2°54.997 10 261 16.1 100840 86
2009-07-08 07:16:37 51°18.388 2°55.015 5.4 281 16.1 100840 86
2009-07-08 07:16:41 51°18.393 2°55.031 9.7 256 16.1 100840 85
2009-07-08 07:16:47 51°18.403 2°55.052 8.4 282 16.1 100840 85
2009-07-08 07:16:51 51°18.409 2°55.066 9 252 16.1 100840 85
2009-07-08 07:16:57 51°18.418 2°55.087 9.8 280 16.1 100840 85
2009-07-08 07:17:01 51°18.425 2°55.101 8.4 259 16.1 100860 85
2009-07-08 07:17:07 51°18.435 2°55.122 7 283 16.1 100860 85
2009-07-08 07:17:11 51°18.44 2°55.137 11.5 258 16.1 100840 82
2009-07-08 07:17:17 51°18.452 2°55.155 7.2 280 16.1 100840 82
2009-07-08 07:17:21 51°18.458 2°55.17 10 256 16.1 100840 85
2009-07-08 07:17:27 51°18.469 2°55.19 8.4 284 16.1 100840 85
2009-07-08 07:17:31 51°18.475 2°55.204 7.1 257 16.1 100840 87
2009-07-08 07:17:37 51°18.485 2°55.225 9.1 281 16.1 100840 87
2009-07-08 07:17:41 51°18.492 2°55.238 9.6 257 16.1 100840 84
2009-07-08 07:17:47 51°18.501 2°55.261 10.6 282 16.1 100840 84
2009-07-08 07:17:52 51°18.511 2°55.276 9.2 255 16.2 100840 81
2009-07-08 07:17:57 51°18.519 2°55.294 9.3 284 16.2 100840 81
2009-07-08 07:18:01 51°18.525 2°55.308 7.5 259 16.1 100840 83
2009-07-08 07:18:07 51°18.535 2°55.329 9.3 280 16.1 100840 83
2009-07-08 07:18:13 51°18.545 2°55.349 6.7 260 16.1 100830 81
2009-07-08 07:18:17 51°18.551 2°55.364 6.6 284 16.1 100830 81
2009-07-08 07:18:21 51°18.557 2°55.379 8 260 16.2 100830 85
2009-07-08 07:18:27 51°18.567 2°55.399 6.9 285 16.2 100830 85
2009-07-08 07:18:31 51°18.574 2°55.414 8.5 260 16.2 100840 87
2009-07-08 07:18:37 51°18.584 2°55.434 8.4 284 16.2 100840 87
2009-07-08 07:18:41 51°18.59 2°55.449 6.3 262 16.2 100850 87
2009-07-08 07:18:47 51°18.6 2°55.47 8.7 284 16.2 100850 87
2009-07-08 07:18:52 51°18.607 2°55.488 8.3 260 16.2 100840 86
2009-07-08 07:18:57 51°18.616 2°55.506 8.2 280 16.2 100840 86
2009-07-08 07:19:01 51°18.623 2°55.518 7.4 260 16.2 100840 87
2009-07-08 07:19:07 51°18.632 2°55.541 8.7 281 16.2 100840 87
2009-07-08 07:19:11 51°18.64 2°55.553 7.8 260 16.2 100850 85
2009-07-08 07:19:17 51°18.648 2°55.575 9.6 281 16.2 100850 85
2009-07-08 07:19:21 51°18.656 2°55.588 6.4 254 16.2 100840 84
2009-07-08 07:19:27 51°18.666 2°55.608 7.9 279 16.2 100840 84
2009-07-08 07:19:32 51°18.674 2°55.626 6.3 261 16.2 100840 85
2009-07-08 07:19:37 51°18.682 2°55.643 7.4 281 16.2 100840 85
2009-07-08 07:19:41 51°18.688 2°55.658 8.3 258 16.1 100840 84
2009-07-08 07:19:47 51°18.698 2°55.678 7.7 279 16.1 100840 84
2009-07-08 07:19:53 51°18.708 2°55.701 9.3 256 16.1 100840 84
2009-07-08 07:19:57 51°18.715 2°55.713 8.4 279 16.1 100840 84
2009-07-08 07:20:01 51°18.72 2°55.729 12.1 257 16.1 100840 85
2009-07-08 07:20:07 51°18.731 2°55.748 8.8 281 16.1 100840 85
2009-07-08 07:20:12 51°18.738 2°55.768 8.1 255 16.1 100840 85
2009-07-08 07:20:17 51°18.747 2°55.784 10.8 280 16.1 100840 85
2009-07-08 07:20:21 51°18.752 2°55.799 9.2 259 16.1 100840 85
2009-07-08 07:20:27 51°18.762 2°55.82 9.5 281 16.1 100840 85
2009-07-08 07:20:31 51°18.768 2°55.835 10 259 16.1 100850 85
2009-07-08 07:20:37 51°18.779 2°55.854 8.1 279 16.1 100850 85
2009-07-08 07:20:41 51°18.785 2°55.869 9.1 259 16.1 100840 85
2009-07-08 07:20:47 51°18.795 2°55.889 8.9 279 16.1 100840 85
2009-07-08 07:20:51 51°18.801 2°55.904 7.7 262 16.1 100850 85
2009-07-08 07:20:57 51°18.811 2°55.924 6.7 285 16.1 100850 85
2009-07-08 07:21:01 51°18.818 2°55.938 5.7 262 16.1 100840 86
2009-07-08 07:21:07 51°18.826 2°55.96 7.1 278 16.1 100840 86
2009-07-08 07:21:11 51°18.834 2°55.973 8.2 253 16.1 100850 86
2009-07-08 07:21:17 51°18.843 2°55.994 8.5 286 16.1 100850 86
2009-07-08 07:21:21 51°18.849 2°56.009 7.6 259 16.1 100840 85
2009-07-08 07:21:27 51°18.86 2°56.029 7.4 283 16.1 100840 85
2009-07-08 07:21:31 51°18.866 2°56.043 7.6 260 16.1 100840 85
2009-07-08 07:21:37 51°18.875 2°56.065 6.5 285 16.1 100840 85
2009-07-08 07:21:41 51°18.882 2°56.078 6.3 261 16.1 100840 86
2009-07-08 07:21:47 51°18.891 2°56.099 7.2 282 16.1 100840 86
2009-07-08 07:21:51 51°18.897 2°56.113 8.8 261 16.1 100840 86
2009-07-08 07:21:57 51°18.908 2°56.132 6.1 282 16.1 100840 86
2009-07-08 07:22:01 51°18.913 2°56.148 8.8 261 16.1 100840 86
2009-07-08 07:22:07 51°18.924 2°56.167 5 278 16.1 100840 86
2009-07-08 07:22:13 51°18.934 2°56.188 6.4 262 16.1 100840 86
2009-07-08 07:22:16 51°18.938 2°56.199 5.9 285 16.1 100840 86
2009-07-08 07:22:22 51°18.949 2°56.219 6.7 258 16.1 100850 86
2009-07-08 07:22:27 51°18.957 2°56.236 5.4 285 16.1 100850 86
2009-07-08 07:22:32 51°18.965 2°56.254 7.5 259 16.1 100840 86
2009-07-08 07:22:37 51°18.974 2°56.27 6.5 283 16.1 100840 86
2009-07-08 07:22:42 51°18.981 2°56.288 8.7 258 16.1 100840 85
2009-07-08 07:22:47 51°18.99 2°56.305 8.4 283 16.1 100840 85
2009-07-08 07:22:52 51°18.998 2°56.323 6.8 259 16.1 100840 86
2009-07-08 07:22:57 51°19.006 2°56.34 8.9 279 16.1 100840 86
2009-07-08 07:23:02 51°19.014 2°56.359 7 262 16.2 100850 86
2009-07-08 07:23:07 51°19.023 2°56.375 5.6 285 16.2 100850 86
2009-07-08 07:23:12 51°19.03 2°56.394 6.5 255 16.2 100850 86
2009-07-08 07:23:17 51°19.038 2°56.411 8.4 277 16.2 100850 86
2009-07-08 07:23:22 51°19.047 2°56.428 8.5 262 16.2 100850 86
2009-07-08 07:23:27 51°19.054 2°56.446 6.8 280 16.2 100850 86
2009-07-08 07:23:32 51°19.062 2°56.463 7.4 261 16.2 100850 87
2009-07-08 07:23:37 51°19.071 2°56.48 5 279 16.2 100850 87
2009-07-08 07:23:42 51°19.078 2°56.498 6.3 259 16.2 100840 87
2009-07-08 07:23:47 51°19.087 2°56.513 7.6 278 16.2 100840 87
2009-07-08 07:23:52 51°19.094 2°56.533 7.9 260 16.2 100840 87
2009-07-08 07:23:57 51°19.103 2°56.548 8 282 16.2 100840 87
2009-07-08 07:24:01 51°19.109 2°56.563 8.5 255 16.2 100850 87
2009-07-08 07:24:07 51°19.118 2°56.584 9.4 282 16.2 100850 87
2009-07-08 07:24:12 51°19.126 2°56.601 8.4 255 16.2 100850 87
2009-07-08 07:24:17 51°19.134 2°56.619 8.9 279 16.2 100850 87
2009-07-08 07:24:22 51°19.142 2°56.637 9.1 254 16.2 100850 79
2009-07-08 07:24:27 51°19.15 2°56.654 10.1 278 16.2 100850 79
2009-07-08 07:24:32 51°19.159 2°56.67 11.1 254 16.3 100840 74
2009-07-08 07:24:37 51°19.166 2°56.689 10.1 280 16.3 100840 74
2009-07-08 07:24:42 51°19.175 2°56.705 7.3 260 16.3 100840 85
2009-07-08 07:24:47 51°19.182 2°56.724 10.9 278 16.3 100840 85
2009-07-08 07:24:52 51°19.19 2°56.741 7.6 262 16.3 100830 85
2009-07-08 07:24:57 51°19.198 2°56.759 8.3 282 16.3 100830 85
2009-07-08 07:25:01 51°19.204 2°56.773 7.8 259 16.3 100830 83
2009-07-08 07:25:07 51°19.213 2°56.795 8.6 282 16.3 100830 83
2009-07-08 07:25:12 51°19.222 2°56.811 6.9 259 16.3 100840 85
2009-07-08 07:25:17 51°19.228 2°56.831 8.4 280 16.3 100840 85
2009-07-08 07:25:21 51°19.236 2°56.843 5.9 261 16.2 100840 84
2009-07-08 07:25:27 51°19.244 2°56.866 6.1 280 16.2 100840 84
2009-07-08 07:25:32 51°19.253 2°56.882 5.8 261 16.2 100840 85
2009-07-08 07:25:37 51°19.259 2°56.901 5.5 283 16.2 100840 85
2009-07-08 07:25:42 51°19.268 2°56.918 9.7 259 16.2 100850 84
2009-07-08 07:25:47 51°19.275 2°56.936 8.6 281 16.2 100850 84
2009-07-08 07:25:52 51°19.283 2°56.953 9.3 257 16.2 100850 84
2009-07-08 07:25:57 51°19.291 2°56.972 7.9 279 16.2 100850 84
2009-07-08 07:26:02 51°19.3 2°56.988 8.2 258 16.2 100850 84
2009-07-08 07:26:07 51°19.306 2°57.008 8.8 285 16.2 100850 84
2009-07-08 07:26:12 51°19.315 2°57.024 11.2 258 16.2 100850 84
2009-07-08 07:26:17 51°19.323 2°57.041 7.5 280 16.2 100850 84
2009-07-08 07:26:21 51°19.329 2°57.056 10.8 259 16.2 100840 85
2009-07-08 07:26:27 51°19.34 2°57.075 8.9 284 16.2 100840 85
2009-07-08 07:26:32 51°19.347 2°57.093 8.8 260 16.2 100840 86
2009-07-08 07:26:37 51°19.356 2°57.109 7.9 284 16.2 100840 86
2009-07-08 07:26:42 51°19.363 2°57.128 9.2 259 16.2 100850 85
2009-07-08 07:26:47 51°19.372 2°57.144 7.3 281 16.2 100850 85
2009-07-08 07:26:52 51°19.38 2°57.163 9.2 259 16.2 100850 85
2009-07-08 07:26:57 51°19.388 2°57.18 8.9 281 16.2 100850 85
2009-07-08 07:27:02 51°19.396 2°57.198 8.8 257 16.2 100850 85
2009-07-08 07:27:07 51°19.405 2°57.215 8.2 285 16.2 100850 85
2009-07-08 07:27:12 51°19.413 2°57.231 5.9 264 16.2 100850 85
2009-07-08 07:27:17 51°19.421 2°57.249 6.5 277 16.2 100850 85
2009-07-08 07:27:22 51°19.43 2°57.266 4.9 263 16.2 100840 84
2009-07-08 07:27:27 51°19.437 2°57.283 6.1 280 16.2 100840 84
2009-07-08 07:27:32 51°19.445 2°57.301 6.8 261 16.1 100840 85
2009-07-08 07:27:37 51°19.454 2°57.317 6.6 279 16.1 100840 85
2009-07-08 07:27:42 51°19.462 2°57.335 5.9 263 16.1 100850 85
2009-07-08 07:27:47 51°19.47 2°57.353 6.3 281 16.1 100850 85
2009-07-08 07:27:52 51°19.478 2°57.37 6.6 260 16.2 100850 85
2009-07-08 07:27:57 51°19.485 2°57.388 8.9 282 16.2 100850 85
2009-07-08 07:28:02 51°19.494 2°57.404 5.7 260 16.1 100850 85
2009-07-08 07:28:07 51°19.501 2°57.423 9.8 283 16.1 100850 85
2009-07-08 07:28:12 51°19.51 2°57.44 7.9 258 16.1 100850 84
2009-07-08 07:28:17 51°19.518 2°57.457 8.7 283 16.1 100850 84
2009-07-08 07:28:22 51°19.525 2°57.476 8.1 259 16.1 100840 85
2009-07-08 07:28:27 51°19.534 2°57.492 6 285 16.1 100840 85
2009-07-08 07:28:32 51°19.54 2°57.511 5.4 263 16.2 100840 85
2009-07-08 07:28:37 51°19.548 2°57.529 5.6 283 16.2 100840 85
2009-07-08 07:28:42 51°19.554 2°57.548 6.1 261 16.2 100850 86
2009-07-08 07:28:47 51°19.56 2°57.567 6.6 285 16.2 100850 86
2009-07-08 07:28:52 51°19.566 2°57.587 5.2 265 16.2 100850 86
2009-07-08 07:28:57 51°19.573 2°57.606 5.1 278 16.2 100850 86
2009-07-08 07:29:01 51°19.578 2°57.621 5.6 266 16.2 100860 86
2009-07-08 07:29:07 51°19.585 2°57.645 4.2 285 16.2 100860 86
2009-07-08 07:29:12 51°19.589 2°57.666 5.6 264 16.2 100850 86
2009-07-08 07:29:17 51°19.596 2°57.685 6.5 284 16.2 100850 86
2009-07-08 07:29:21 51°19.601 2°57.7 6.4 267 16.2 100850 86
2009-07-08 07:29:27 51°19.606 2°57.724 5.2 284 16.2 100850 86
2009-07-08 07:29:32 51°19.613 2°57.743 6.9 260 16.2 100850 86
2009-07-08 07:29:37 51°19.618 2°57.764 6.5 277 16.2 100850 86
2009-07-08 07:29:42 51°19.624 2°57.783 6.7 262 16.2 100840 87
2009-07-08 07:29:47 51°19.629 2°57.803 5.5 285 16.2 100840 87
2009-07-08 07:29:52 51°19.634 2°57.823 7.4 261 16.3 100850 87
2009-07-08 07:29:57 51°19.641 2°57.843 5.6 280 16.3 100850 87
2009-07-08 07:30:02 51°19.645 2°57.863 8.4 262 16.3 100840 76
2009-07-08 07:30:07 51°19.651 2°57.883 7.1 286 16.3 100840 76
2009-07-08 07:30:12 51°19.656 2°57.903 7 261 16.3 100850 74
2009-07-08 07:30:17 51°19.662 2°57.922 6.7 284 16.3 100850 74
2009-07-08 07:30:22 51°19.668 2°57.942 5.3 264 16.2 100860 73
2009-07-08 07:30:27 51°19.673 2°57.962 7.9 279 16.2 100860 73
2009-07-08 07:30:32 51°19.68 2°57.981 4.9 264 16.2 100860 73
2009-07-08 07:30:37 51°19.685 2°58.001 5.5 285 16.2 100860 73
2009-07-08 07:30:41 51°19.689 2°58.017 6.1 265 16.2 100850 74
2009-07-08 07:30:47 51°19.696 2°58.041 6.2 279 16.2 100850 74
2009-07-08 07:30:52 51°19.702 2°58.06 4.9 260 16.1 100850 73
2009-07-08 07:30:57 51°19.706 2°58.08 6.4 279 16.1 100850 73
2009-07-08 07:31:01 51°19.712 2°58.095 6.6 262 16.1 100860 74
2009-07-08 07:31:07 51°19.717 2°58.12 5.3 280 16.1 100860 74
2009-07-08 07:31:12 51°19.723 2°58.139 5.9 261 16.1 100860 74
2009-07-08 07:31:17 51°19.729 2°58.158 6.9 278 16.1 100860 74
2009-07-08 07:31:22 51°19.734 2°58.177 6.9 260 16.1 100840 74
2009-07-08 07:31:27 51°19.74 2°58.197 4.5 280 16.1 100840 74
2009-07-08 07:31:32 51°19.745 2°58.216 4.7 264 16.1 100840 74
2009-07-08 07:31:37 51°19.751 2°58.236 3.8 285 16.1 100840 74
2009-07-08 07:31:42 51°19.756 2°58.255 4.8 259 16.1 100850 73
2009-07-08 07:31:47 51°19.761 2°58.275 7.9 284 16.1 100850 73
2009-07-08 07:31:52 51°19.767 2°58.294 7 256 16.1 100850 74
2009-07-08 07:31:57 51°19.772 2°58.315 6.6 283 16.1 100850 74
2009-07-08 07:32:02 51°19.778 2°58.334 5.9 264 16.1 100850 74
2009-07-08 07:32:07 51°19.782 2°58.354 6.4 284 16.1 100850 74
2009-07-08 07:32:12 51°19.788 2°58.373 4.8 263 16.1 100850 74
2009-07-08 07:32:17 51°19.793 2°58.393 7.4 282 16.1 100850 74
2009-07-08 07:32:21 51°19.799 2°58.407 3.9 264 16.1 100850 74
2009-07-08 07:32:27 51°19.803 2°58.432 5.9 285 16.1 100850 74
2009-07-08 07:32:32 51°19.81 2°58.45 5.9 263 16.1 100860 73
2009-07-08 07:32:37 51°19.815 2°58.471 6.4 285 16.1 100860 73
2009-07-08 07:32:42 51°19.822 2°58.489 5.4 26 16.1 100850 73
2009-07-08 07:32:47 51°19.825 2°58.51 5.4 284 16.1 100850 73
2009-07-08 07:32:52 51°19.832 2°58.528 6.4 267 16.1 100850 73
2009-07-08 07:32:57 51°19.836 2°58.547 4.5 280 16.1 100850 73
2009-07-08 07:33:01 51°19.84 2°58.563 6.8 262 16.1 100850 73
2009-07-08 07:33:07 51°19.848 2°58.585 5.5 280 16.1 100850 73
2009-07-08 07:33:12 51°19.853 2°58.605 5.1 264 16.1 100850 74
2009-07-08 07:33:17 51°19.859 2°58.624 5.7 281 16.1 100850 74
2009-07-08 07:33:22 51°19.865 2°58.642 5.6 267 16 100850 73
2009-07-08 07:33:27 51°19.87 2°58.662 4.4 280 16 100850 73
2009-07-08 07:33:32 51°19.875 2°58.681 5 265 16 100850 72
2009-07-08 07:33:37 51°19.882 2°58.699 5.1 280 16 100850 72
2009-07-08 07:33:42 51°19.885 2°58.72 6.1 270 16 100850 73
2009-07-08 07:33:47 51°19.891 2°58.739 5.2 280 16 100850 73
2009-07-08 07:33:52 51°19.897 2°58.758 6.1 271 16 100850 72
2009-07-08 07:33:57 51°19.902 2°58.777 4.6 280 16 100850 72
2009-07-08 07:34:01 51°19.906 2°58.792 4.3 265 15.9 100860 71
2009-07-08 07:34:07 51°19.912 2°58.816 4.1 279 15.9 100860 71
2009-07-08 07:34:11 51°19.917 2°58.831 6.5 30 15.9 100850 72
2009-07-08 07:34:17 51°19.924 2°58.854 5.5 289 15.9 100850 72
2009-07-08 07:34:22 51°19.929 2°58.874 5.6 269 15.9 100850 72
2009-07-08 07:34:27 51°19.935 2°58.893 5.6 78 15.9 100850 72
2009-07-08 07:34:32 51°19.941 2°58.912 4.7 270 15.9 100850 73
2009-07-08 07:34:37 51°19.946 2°58.932 4.6 71 15.9 100850 73
2009-07-08 07:34:42 51°19.953 2°58.95 5 262 15.9 100850 73
2009-07-08 07:34:47 51°19.958 2°58.969 5.2 286 15.9 100850 73
2009-07-08 07:34:52 51°19.963 2°58.989 5.4 266 15.9 100850 71
2009-07-08 07:34:57 51°19.97 2°59.007 5.5 284 15.9 100850 71
2009-07-08 07:35:02 51°19.975 2°59.027 5.3 266 15.9 100850 73
2009-07-08 07:35:07 51°19.981 2°59.045 5.3 283 15.9 100850 73
2009-07-08 07:35:12 51°19.986 2°59.065 4.5 268 16 100860 72
2009-07-08 07:35:17 51°19.992 2°59.084 5.4 279 16 100860 72
2009-07-08 07:35:22 51°19.997 2°59.103 4.2 267 16 100850 72
2009-07-08 07:35:27 51°20.003 2°59.123 4 281 16 100850 72
2009-07-08 07:35:32 51°20.009 2°59.141 4.1 268 16 100860 73
2009-07-08 07:35:37 51°20.014 2°59.161 3.7 286 16 100860 73
2009-07-08 07:35:41 51°20.019 2°59.176 5.1 267 16 100860 72
2009-07-08 07:35:47 51°20.026 2°59.199 4.4 287 16 100860 72
2009-07-08 07:35:52 51°20.031 2°59.218 4.7 267 16 100850 73
2009-07-08 07:35:57 51°20.038 2°59.236 4.4 74 16 100850 73
2009-07-08 07:36:02 51°20.042 2°59.257 4.6 264 16 100850 72
2009-07-08 07:36:07 51°20.048 2°59.276 4.6 286 16 100850 72
2009-07-08 07:36:12 51°20.053 2°59.295 5.5 259 16 100850 73
2009-07-08 07:36:17 51°20.059 2°59.313 3.6 285 16 100850 73
2009-07-08 07:36:21 51°20.064 2°59.328 4 264 16 100850 73
2009-07-08 07:36:27 51°20.071 2°59.352 3.7 278 16 100850 73
2009-07-08 07:36:32 51°20.076 2°59.371 5.3 263 16 100850 73
2009-07-08 07:36:37 51°20.081 2°59.389 6.4 284 16 100850 73
2009-07-08 07:36:42 51°20.088 2°59.408 4.9 263 16 100850 72
2009-07-08 07:36:47 51°20.093 2°59.427 5.2 279 16 100850 72
2009-07-08 07:36:52 51°20.098 2°59.447 5.6 262 16 100860 72
2009-07-08 07:36:57 51°20.104 2°59.465 6.9 281 16 100860 72
2009-07-08 07:37:02 51°20.11 2°59.484 4 264 16 100850 73
2009-07-08 07:37:07 51°20.115 2°59.504 6.2 284 16 100850 73
2009-07-08 07:37:12 51°20.122 2°59.522 7 260 16 100860 72
2009-07-08 07:37:17 51°20.127 2°59.541 5.7 280 16 100860 72
2009-07-08 07:37:22 51°20.133 2°59.56 6.2 259 16 100860 73
2009-07-08 07:37:27 51°20.138 2°59.579 5.1 283 16 100860 73
2009-07-08 07:37:32 51°20.145 2°59.596 5 262 16.1 100850 73
2009-07-08 07:37:37 51°20.149 2°59.616 4.1 279 16.1 100850 73
2009-07-08 07:37:42 51°20.156 2°59.635 4.1 262 16.1 100860 72
2009-07-08 07:37:47 51°20.16 2°59.654 4.9 283 16.1 100860 72
2009-07-08 07:37:52 51°20.166 2°59.672 5.2 262 16.1 100850 73
2009-07-08 07:37:57 51°20.171 2°59.692 5.5 280 16.1 100850 73
2009-07-08 07:38:01 51°20.175 2°59.707 6.4 262 16.1 100850 73
2009-07-08 07:38:07 51°20.183 2°59.729 4.4 280 16.1 100850 73
2009-07-08 07:38:12 51°20.187 2°59.749 5.1 263 16.1 100850 72
2009-07-08 07:38:17 51°20.194 2°59.767 5.8 280 16.1 100850 72
2009-07-08 07:38:22 51°20.198 2°59.787 6.4 257 16.1 100850 72
2009-07-08 07:38:27 51°20.205 2°59.805 8.6 282 16.1 100850 72
2009-07-08 07:38:32 51°20.21 2°59.824 9.9 260 16.1 100860 73
2009-07-08 07:38:37 51°20.216 2°59.843 8.3 285 16.1 100860 73
2009-07-08 07:38:42 51°20.221 2°59.862 8.1 259 16.1 100860 73
2009-07-08 07:38:47 51°20.226 2°59.882 7.6 282 16.1 100860 73
2009-07-08 07:38:52 51°20.233 2°59.9 5.4 262 16.2 100860 73
2009-07-08 07:38:57 51°20.238 2°59.919 7.5 279 16.2 100860 73
2009-07-08 07:39:02 51°20.244 2°59.939 6.7 262 16.1 100860 73
2009-07-08 07:39:07 51°20.25 2°59.957 6.5 282 16.1 100860 73
2009-07-08 07:39:12 51°20.254 2°59.977 7.7 261 16.1 100860 73
2009-07-08 07:39:17 51°20.26 2°59.995 5.9 278 16.1 100860 73
2009-07-08 07:39:22 51°20.265 3°0.014 5.6 265 16.1 100860 73
2009-07-08 07:39:27 51°20.27 3°0.033 5.1 286 16.1 100860 73
2009-07-08 07:39:32 51°20.277 3°0.051 4 261 16.1 100870 72
2009-07-08 07:39:37 51°20.281 3°0.071 4.6 279 16.1 100870 72
2009-07-08 07:39:41 51°20.285 3°0.086 5.5 255 16.1 100860 73
2009-07-08 07:39:47 51°20.292 3°0.109 8.7 282 16.1 100860 73
2009-07-08 07:39:52 51°20.297 3°0.127 3.5 263 16.1 100850 71
2009-07-08 07:39:57 51°20.301 3°0.147 7.6 283 16.1 100850 71
2009-07-08 07:40:02 51°20.309 3°0.165 5.3 262 16.1 100860 72
2009-07-08 07:40:07 51°20.313 3°0.184 5.6 279 16.1 100860 72
2009-07-08 07:40:12 51°20.318 3°0.203 7.1 257 16 100860 72
2009-07-08 07:40:17 51°20.324 3°0.221 6.9 280 16 100860 72
2009-07-08 07:40:21 51°20.328 3°0.236 8.4 258 16.1 100850 71
2009-07-08 07:40:27 51°20.333 3°0.26 7.4 281 16.1 100850 71
2009-07-08 07:40:32 51°20.341 3°0.277 4.5 262 16.1 100860 72
2009-07-08 07:40:37 51°20.344 3°0.297 6.4 284 16.1 100860 72
2009-07-08 07:40:42 51°20.351 3°0.315 7 259 16.1 100860 71
2009-07-08 07:40:47 51°20.356 3°0.333 4.5 280 16.1 100860 71
2009-07-08 07:40:52 51°20.361 3°0.352 6.4 260 16 100850 71
2009-07-08 07:40:57 51°20.367 3°0.37 6.6 279 16 100850 71
2009-07-08 07:41:02 51°20.373 3°0.389 4.8 263 16.1 100850 71
2009-07-08 07:41:07 51°20.378 3°0.408 7.5 281 16.1 100850 71
2009-07-08 07:41:12 51°20.384 3°0.427 8.1 260 16.1 100860 72
2009-07-08 07:41:17 51°20.39 3°0.445 5.5 280 16.1 100860 72
2009-07-08 07:41:22 51°20.394 3°0.465 7.6 262 16.1 100850 72
2009-07-08 07:41:27 51°20.401 3°0.482 8.4 279 16.1 100850 72
2009-07-08 07:41:32 51°20.405 3°0.502 8.8 259 16.1 100850 72
2009-07-08 07:41:37 51°20.411 3°0.521 10.5 283 16.1 100850 72
2009-07-08 07:41:42 51°20.417 3°0.538 7 261 16.1 100870 73
2009-07-08 07:41:47 51°20.421 3°0.558 7.6 281 16.1 100870 73
2009-07-08 07:41:52 51°20.426 3°0.577 9.3 260 16.1 100860 73
2009-07-08 07:41:57 51°20.432 3°0.595 7.6 284 16.1 100860 73
2009-07-08 07:42:02 51°20.436 3°0.615 8.3 261 16.1 100860 72
2009-07-08 07:42:07 51°20.443 3°0.633 6.1 284 16.1 100860 72
2009-07-08 07:42:12 51°20.447 3°0.652 6.8 261 16.1 100850 72
2009-07-08 07:42:17 51°20.454 3°0.67 6 283 16.1 100850 72
2009-07-08 07:42:22 51°20.459 3°0.689 5.7 261 16 100860 70
2009-07-08 07:42:27 51°20.463 3°0.708 7.6 286 16 100860 70
2009-07-08 07:42:32 51°20.469 3°0.728 5.3 265 16 100860 71
2009-07-08 07:42:37 51°20.474 3°0.745 4.2 281 16 100860 71
2009-07-08 07:42:42 51°20.477 3°0.766 6.3 264 16 100860 70
2009-07-08 07:42:47 51°20.485 3°0.782 5.8 280 16 100860 70
2009-07-08 07:42:52 51°20.488 3°0.802 6.7 257 16 100860 72
2009-07-08 07:42:57 51°20.495 3°0.819 5.8 286 16 100860 72
2009-07-08 07:43:01 51°20.499 3°0.835 7.3 259 16 100860 71
2009-07-08 07:43:07 51°20.505 3°0.857 8.9 283 16 100860 71
2009-07-08 07:43:12 51°20.51 3°0.877 6.4 260 16 100860 71
2009-07-08 07:43:17 51°20.515 3°0.895 8.7 284 16 100860 71
2009-07-08 07:43:22 51°20.521 3°0.913 6.1 262 16 100860 71
2009-07-08 07:43:27 51°20.525 3°0.932 6.8 278 16 100860 71
2009-07-08 07:43:32 51°20.531 3°0.951 7.2 259 16 100850 71
2009-07-08 07:43:37 51°20.537 3°0.969 6.7 279 16 100850 71
2009-07-08 07:43:42 51°20.541 3°0.989 8.6 259 16 100860 71
2009-07-08 07:43:47 51°20.548 3°1.006 6 279 16 100860 71
2009-07-08 07:43:52 51°20.552 3°1.025 4.9 261 16 100860 71
2009-07-08 07:43:58 51°20.559 3°1.047 9.3 284 16 100860 71
2009-07-08 07:44:02 51°20.563 3°1.062 5.9 260 16 100860 71
2009-07-08 07:44:07 51°20.569 3°1.081 6.6 285 16 100860 71
2009-07-08 07:44:12 51°20.574 3°1.1 4.5 264 16 100860 70
2009-07-08 07:44:17 51°20.579 3°1.119 7.3 278 16 100860 70
2009-07-08 07:44:22 51°20.584 3°1.138 5.6 261 16 100850 72
2009-07-08 07:44:26 51°20.59 3°1.152 6.5 281 16 100850 72
2009-07-08 07:44:32 51°20.595 3°1.175 6.3 270 16 100860 72
2009-07-08 07:44:37 51°20.601 3°1.194 8.4 286 16 100860 72
2009-07-08 07:44:42 51°20.605 3°1.212 5.3 269 16 100860 71
2009-07-08 07:44:47 51°20.611 3°1.231 4.9 284 16 100860 71
2009-07-08 07:44:51 51°20.615 3°1.246 5.7 267 16 100870 70
2009-07-08 07:44:57 51°20.621 3°1.269 6.1 279 16 100870 70
2009-07-08 07:45:02 51°20.627 3°1.287 3.7 269 16 100860 71
2009-07-08 07:45:07 51°20.632 3°1.306 4.5 284 16 100860 71
2009-07-08 07:45:12 51°20.637 3°1.325 6.3 263 16.1 100860 71
2009-07-08 07:45:17 51°20.644 3°1.343 6.2 278 16.1 100860 71
2009-07-08 07:45:22 51°20.649 3°1.362 4.5 267 16.1 100860 72
2009-07-08 07:45:27 51°20.654 3°1.381 5.7 284 16.1 100860 72
2009-07-08 07:45:32 51°20.66 3°1.399 4.3 266 16.1 100860 71
2009-07-08 07:45:37 51°20.666 3°1.418 6.9 278 16.1 100860 71
2009-07-08 07:45:42 51°20.67 3°1.437 7.6 259 16.1 100860 73
2009-07-08 07:45:47 51°20.676 3°1.456 6.3 278 16.1 100860 73
2009-07-08 07:45:52 51°20.682 3°1.474 5.5 265 16.1 100860 73
2009-07-08 07:45:57 51°20.686 3°1.494 6.3 285 16.1 100860 73
2009-07-08 07:46:02 51°20.692 3°1.512 6.6 258 16.2 100860 71
2009-07-08 07:46:07 51°20.697 3°1.531 7.8 285 16.2 100860 71
2009-07-08 07:46:12 51°20.703 3°1.55 5.1 267 16.2 100860 72
2009-07-08 07:46:17 51°20.708 3°1.569 6 284 16.2 100860 72
2009-07-08 07:46:22 51°20.714 3°1.587 4.8 267 16.2 100860 72
2009-07-08 07:46:27 51°20.718 3°1.606 4.7 279 16.2 100860 72
2009-07-08 07:46:32 51°20.725 3°1.623 6.1 24 16.2 100850 71
2009-07-08 07:46:37 51°20.728 3°1.641 4.8 284 16.2 100850 71
2009-07-08 07:46:42 51°20.734 3°1.659 4.1 263 16.2 100870 70
2009-07-08 07:46:47 51°20.739 3°1.676 6 274 16.2 100870 70
2009-07-08 07:46:52 51°20.745 3°1.693 4.6 269 16.1 100860 72
2009-07-08 07:46:57 51°20.749 3°1.711 4.4 279 16.1 100860 72
2009-07-08 07:47:02 51°20.755 3°1.727 4.9 30 16.2 100860 71
2009-07-08 07:47:07 51°20.76 3°1.745 5.5 82 16.2 100860 71
2009-07-08 07:47:11 51°20.765 3°1.758 5 22 16.1 100860 71
2009-07-08 07:47:17 51°20.77 3°1.78 5.7 284 16.1 100860 71
2009-07-08 07:47:22 51°20.776 3°1.796 4.8 27 16.1 100860 70
2009-07-08 07:47:27 51°20.781 3°1.813 3.5 281 16.1 100860 70
2009-07-08 07:47:31 51°20.785 3°1.827 5.8 270 16.2 100860 71
2009-07-08 07:47:37 51°20.791 3°1.849 4.2 282 16.2 100860 71
2009-07-08 07:47:42 51°20.798 3°1.866 4.1 268 16.2 100860 71
2009-07-08 07:47:47 51°20.802 3°1.885 3.4 280 16.2 100860 71
2009-07-08 07:47:51 51°20.805 3°1.9 6.6 268 16.2 100860 71
2009-07-08 07:47:57 51°20.813 3°1.921 5.7 80 16.2 100860 71
2009-07-08 07:48:02 51°20.818 3°1.94 4 265 16.2 100860 72
2009-07-08 07:48:07 51°20.823 3°1.959 3.9 284 16.2 100860 72
2009-07-08 07:48:12 51°20.828 3°1.977 5.1 262 16.2 100860 72
2009-07-08 07:48:17 51°20.833 3°1.995 6.3 279 16.2 100860 72
2009-07-08 07:48:22 51°20.838 3°2.013 5.1 270 16.2 100870 83
2009-07-08 07:48:27 51°20.842 3°2.032 5 278 16.2 100870 83
2009-07-08 07:48:32 51°20.849 3°2.049 4.1 262 16.2 100870 86
2009-07-08 07:48:37 51°20.853 3°2.067 4.7 279 16.2 100870 86
2009-07-08 07:48:42 51°20.859 3°2.084 4.4 266 16.3 100850 87
2009-07-08 07:48:47 51°20.863 3°2.102 6.4 280 16.3 100850 87
2009-07-08 07:48:52 51°20.869 3°2.119 5.3 266 16.3 100850 87
2009-07-08 07:48:57 51°20.874 3°2.137 4.9 283 16.3 100850 87
2009-07-08 07:49:02 51°20.88 3°2.154 4.7 260 16.3 100860 86
2009-07-08 07:49:07 51°20.885 3°2.172 4.5 284 16.3 100860 86
2009-07-08 07:49:12 51°20.89 3°2.189 3.8 264 16.3 100860 85
2009-07-08 07:49:17 51°20.895 3°2.207 5.4 286 16.3 100860 85
2009-07-08 07:49:22 51°20.9 3°2.225 5 264 16.3 100860 85
2009-07-08 07:49:27 51°20.905 3°2.242 4.9 285 16.3 100860 85
2009-07-08 07:49:31 51°20.909 3°2.256 4.6 268 16.3 100860 85
2009-07-08 07:49:37 51°20.915 3°2.277 4.7 280 16.3 100860 85
2009-07-08 07:49:42 51°20.92 3°2.295 5 263 16.3 100860 75
2009-07-08 07:49:47 51°20.925 3°2.312 5 283 16.3 100860 75
2009-07-08 07:49:52 51°20.929 3°2.331 5.1 266 16.3 100860 83
2009-07-08 07:49:57 51°20.935 3°2.347 5 278 16.3 100860 83
2009-07-08 07:50:02 51°20.94 3°2.365 5.1 268 16.2 100860 83
2009-07-08 07:50:06 51°20.944 3°2.379 4.8 278 16.2 100860 83
2009-07-08 07:50:12 51°20.95 3°2.4 5.3 262 16.2 100860 83
2009-07-08 07:50:17 51°20.956 3°2.417 4.5 278 16.2 100860 83
2009-07-08 07:50:22 51°20.96 3°2.435 4.9 266 16.2 100860 82
2009-07-08 07:50:26 51°20.966 3°2.448 3.8 279 16.2 100860 82
2009-07-08 07:50:32 51°20.971 3°2.47 5.4 263 16.2 100860 83
2009-07-08 07:50:38 51°20.978 3°2.49 4.8 282 16.2 100860 83
2009-07-08 07:50:42 51°20.981 3°2.504 4.7 263 16.2 100860 83
2009-07-08 07:50:46 51°20.986 3°2.518 3.7 283 16.2 100860 83
2009-07-08 07:50:52 51°20.992 3°2.539 7.8 257 16.2 100860 83
2009-07-08 07:50:57 51°20.997 3°2.557 6.9 280 16.2 100860 83
2009-07-08 07:51:02 51°21.002 3°2.574 6.7 259 16.2 100860 83
2009-07-08 07:51:07 51°21.007 3°2.592 6.1 279 16.2 100860 83
2009-07-08 07:51:12 51°21.012 3°2.608 6.4 260 16.3 100860 83
2009-07-08 07:51:17 51°21.017 3°2.626 6 283 16.3 100860 83
2009-07-08 07:51:22 51°21.022 3°2.644 6.7 260 16.3 100860 83
2009-07-08 07:51:27 51°21.027 3°2.661 5.5 286 16.3 100860 83
2009-07-08 07:51:32 51°21.031 3°2.678 6.7 259 16.2 100860 83
2009-07-08 07:51:37 51°21.036 3°2.697 6.6 280 16.2 100860 83
2009-07-08 07:51:42 51°21.042 3°2.713 4.3 262 16.2 100860 83
2009-07-08 07:51:47 51°21.045 3°2.732 6.3 278 16.2 100860 83
2009-07-08 07:51:52 51°21.051 3°2.748 5.7 267 16.2 100860 82
2009-07-08 07:51:57 51°21.056 3°2.765 4.3 283 16.2 100860 82
2009-07-08 07:52:02 51°21.06 3°2.783 6.2 262 16.2 100860 82
2009-07-08 07:52:07 51°21.066 3°2.799 5 280 16.2 100860 82
2009-07-08 07:52:11 51°21.07 3°2.814 4.6 264 16.2 100850 82
2009-07-08 07:52:17 51°21.075 3°2.834 5.7 281 16.2 100850 82
2009-07-08 07:52:22 51°21.08 3°2.851 5.3 263 16.2 100860 82
2009-07-08 07:52:27 51°21.085 3°2.868 3.7 279 16.2 100860 82
2009-07-08 07:52:31 51°21.089 3°2.882 4.5 264 16.2 100860 82
2009-07-08 07:52:37 51°21.094 3°2.904 5.9 285 16.2 100860 82
2009-07-08 07:52:42 51°21.1 3°2.92 5.3 270 16.2 100860 82
2009-07-08 07:52:47 51°21.104 3°2.938 4.2 284 16.2 100860 82
2009-07-08 07:52:52 51°21.108 3°2.956 5.6 264 16.2 100860 82
2009-07-08 07:52:57 51°21.114 3°2.971 5.4 82 16.2 100860 82
2009-07-08 07:53:02 51°21.118 3°2.99 4.6 263 16.2 100860 82
2009-07-08 07:53:07 51°21.123 3°3.006 4.1 277 16.2 100860 82
2009-07-08 07:53:12 51°21.128 3°3.024 4.7 267 16.2 100860 83
2009-07-08 07:53:17 51°21.132 3°3.041 4 284 16.2 100860 83
2009-07-08 07:53:22 51°21.136 3°3.059 5.6 267 16.2 100860 81
2009-07-08 07:53:27 51°21.142 3°3.076 5.2 283 16.2 100860 81
2009-07-08 07:53:32 51°21.145 3°3.094 4.7 269 16.2 100860 82
2009-07-08 07:53:37 51°21.151 3°3.111 4 283 16.2 100860 82
2009-07-08 07:53:42 51°21.155 3°3.129 3.1 266 16.2 100870 81
2009-07-08 07:53:47 51°21.16 3°3.147 3.8 82 16.2 100870 81
2009-07-08 07:53:52 51°21.164 3°3.165 4.8 267 16.2 100870 81
2009-07-08 07:53:57 51°21.169 3°3.182 5.3 284 16.2 100870 81
2009-07-08 07:54:02 51°21.174 3°3.2 6.4 31 16.2 100870 82
2009-07-08 07:54:07 51°21.178 3°3.218 4 280 16.2 100870 82
2009-07-08 07:54:12 51°21.183 3°3.236 5.9 268 16.2 100860 82
2009-07-08 07:54:17 51°21.188 3°3.252 5.4 80 16.2 100860 82
2009-07-08 07:54:22 51°21.191 3°3.271 6.1 24 16.2 100870 83
2009-07-08 07:54:26 51°21.196 3°3.284 5.3 80 16.2 100870 83
2009-07-08 07:54:32 51°21.201 3°3.305 5 263 16.2 100870 83
2009-07-08 07:54:37 51°21.206 3°3.322 3.6 279 16.2 100870 83
2009-07-08 07:54:42 51°21.211 3°3.339 5.2 26 16.2 100870 82
2009-07-08 07:54:46 51°21.214 3°3.353 5.7 282 16.2 100870 82
2009-07-08 07:54:52 51°21.22 3°3.373 5.8 266 16.1 100880 81
2009-07-08 07:54:57 51°21.225 3°3.39 5.1 284 16.1 100880 81
2009-07-08 07:55:02 51°21.229 3°3.407 6 269 16.1 100860 82
2009-07-08 07:55:06 51°21.232 3°3.42 6.3 284 16.1 100860 82
2009-07-08 07:55:12 51°21.238 3°3.438 5.3 19 16.1 100860 72
2009-07-08 07:55:17 51°21.241 3°3.453 4.2 280 16.1 100860 72
2009-07-08 07:55:22 51°21.246 3°3.468 6.3 269 16.1 100860 72
2009-07-08 07:55:26 51°21.248 3°3.479 7 77 16.1 100860 72
2009-07-08 07:55:32 51°21.253 3°3.496 6.6 27 16.1 100870 70
2009-07-08 07:55:37 51°21.256 3°3.51 5.9 77 16.1 100870 70
2009-07-08 07:55:42 51°21.261 3°3.524 5.5 26 16.1 100870 71
2009-07-08 07:55:46 51°21.263 3°3.535 6.6 82 16.1 100870 71
2009-07-08 07:55:52 51°21.267 3°3.552 5.5 270 16.1 100870 72
2009-07-08 07:55:57 51°21.27 3°3.565 6.6 284 16.1 100870 72
2009-07-08 07:56:02 51°21.273 3°3.579 6 268 16.1 100860 72
2009-07-08 07:56:07 51°21.277 3°3.591 5.1 74 16.1 100860 72
2009-07-08 07:56:12 51°21.281 3°3.605 6.4 269 16.1 100860 71
2009-07-08 07:56:17 51°21.284 3°3.618 5.7 280 16.1 100860 71
2009-07-08 07:56:22 51°21.287 3°3.631 5.6 21 16.1 100870 71
2009-07-08 07:56:27 51°21.29 3°3.644 3.6 282 16.1 100870 71
2009-07-08 07:56:32 51°21.294 3°3.657 6.2 270 16.1 100870 71
2009-07-08 07:56:37 51°21.297 3°3.669 5.2 81 16.1 100870 71
2009-07-08 07:56:42 51°21.301 3°3.682 4.8 29 16.1 100860 71
2009-07-08 07:56:46 51°21.303 3°3.692 5.2 284 16.1 100860 71
2009-07-08 07:56:52 51°21.307 3°3.708 4.8 28 16.1 100860 72
2009-07-08 07:56:57 51°21.311 3°3.72 3.5 281 16.1 100860 72
2009-07-08 07:57:02 51°21.314 3°3.733 6.3 26 16.1 100860 70
2009-07-08 07:57:06 51°21.316 3°3.744 6.4 77 16.1 100860 70
2009-07-08 07:57:12 51°21.319 3°3.759 7.3 270 16.1 100870 70
2009-07-08 07:57:16 51°21.323 3°3.769 6.2 80 16.1 100870 70
2009-07-08 07:57:22 51°21.326 3°3.785 6.4 27 16.1 100860 71
2009-07-08 07:57:26 51°21.328 3°3.795 6.2 81 16.1 100860 71
2009-07-08 07:57:32 51°21.332 3°3.811 7.1 26 16.2 100870 72
2009-07-08 07:57:37 51°21.336 3°3.823 6.5 82 16.2 100870 72
2009-07-08 07:57:42 51°21.338 3°3.837 5.7 270 16.2 100870 72
2009-07-08 07:57:46 51°21.342 3°3.847 6 80 16.2 100870 72
2009-07-08 07:57:52 51°21.344 3°3.863 8.2 25 16.1 100870 71
2009-07-08 07:57:57 51°21.348 3°3.875 6.9 82 16.1 100870 71
2009-07-08 07:58:02 51°21.351 3°3.888 5.5 260 16.2 100870 71
2009-07-08 07:58:06 51°21.354 3°3.899 6.4 283 16.2 100870 71
2009-07-08 07:58:12 51°21.358 3°3.914 6.8 269 16.2 100860 72
2009-07-08 07:58:17 51°21.361 3°3.927 6.6 279 16.2 100860 72
2009-07-08 07:58:22 51°21.364 3°3.94 5.9 267 16.2 100860 72
2009-07-08 07:58:26 51°21.367 3°3.95 7.1 279 16.2 100860 72
2009-07-08 07:58:32 51°21.371 3°3.965 7.5 27 16.2 100870 72
2009-07-08 07:58:37 51°21.373 3°3.978 7.3 281 16.2 100870 72
2009-07-08 07:58:42 51°21.377 3°3.99 6.3 267 16.2 100870 72
2009-07-08 07:58:47 51°21.379 3°4.003 7.3 283 16.2 100870 72
2009-07-08 07:58:52 51°21.383 3°4.016 6.9 24 16.2 100870 71
2009-07-08 07:58:57 51°21.385 3°4.028 7.5 282 16.2 100870 71
2009-07-08 07:59:02 51°21.389 3°4.041 7.3 269 16.1 100870 70
2009-07-08 07:59:07 51°21.392 3°4.053 7.1 278 16.1 100870 70
2009-07-08 07:59:12 51°21.395 3°4.065 5.5 269 16.1 100870 71
2009-07-08 07:59:17 51°21.398 3°4.078 6.6 278 16.1 100870 71
2009-07-08 07:59:22 51°21.401 3°4.091 5.9 270 16.1 100860 72
2009-07-08 07:59:27 51°21.404 3°4.103 7.9 80 16.1 100860 72